TimeCDT,TemperatureF,Dew PointF,Humidity,Sea Level PressureIn,VisibilityMPH,Wind Direction,Wind SpeedMPH,Gust SpeedMPH,PrecipitationIn,Events,Conditions,WindDirDegrees,DateUTC
12:53 AM,79.0,69.1,72,29.99,10.0,NNE,6.9,-,N/A,,Clear,30,2013-08-01 05:53:00
1:53 AM,78.1,69.1,74,29.99,10.0,NNE,5.8,-,N/A,,Clear,20,2013-08-01 06:53:00
2:53 AM,78.1,69.1,74,29.98,10.0,NE,9.2,-,N/A,,Clear,50,2013-08-01 07:53:00
3:53 AM,77.0,69.1,76,29.97,10.0,ENE,8.1,-,N/A,,Clear,60,2013-08-01 08:53:00
4:53 AM,77.0,69.1,76,29.99,10.0,NNE,6.9,-,N/A,,Clear,30,2013-08-01 09:53:00
5:53 AM,75.0,70.0,84,29.99,10.0,ENE,8.1,-,N/A,,Clear,60,2013-08-01 10:53:00
6:53 AM,73.9,69.1,85,30.00,10.0,NNE,6.9,-,N/A,,Clear,20,2013-08-01 11:53:00
7:53 AM,78.1,70.0,76,30.00,10.0,NE,9.2,-,N/A,,Clear,50,2013-08-01 12:53:00
8:53 AM,82.0,70.0,67,30.01,10.0,East,12.7,-,N/A,,Clear,80,2013-08-01 13:53:00
9:53 AM,84.9,70.0,61,30.01,10.0,East,10.4,-,N/A,,Clear,80,2013-08-01 14:53:00
10:53 AM,88.0,70.0,55,30.01,10.0,East,6.9,-,N/A,,Scattered Clouds,80,2013-08-01 15:53:00
11:53 AM,89.1,69.1,52,30.01,10.0,Variable,5.8,-,N/A,,Scattered Clouds,0,2013-08-01 16:53:00
12:53 PM,91.9,68.0,45,29.99,10.0,ESE,5.8,-,N/A,,Clear,110,2013-08-01 17:53:00
1:53 PM,93.0,66.0,41,29.96,10.0,Calm,Calm,-,N/A,,Clear,0,2013-08-01 18:53:00
2:53 PM,95.0,66.0,38,29.94,10.0,South,4.6,-,N/A,,Clear,170,2013-08-01 19:53:00
3:53 PM,96.1,64.9,36,29.91,10.0,East,9.2,17.3,N/A,,Clear,90,2013-08-01 20:53:00
4:53 PM,97.0,64.0,34,29.89,10.0,East,10.4,17.3,N/A,,Clear,100,2013-08-01 21:53:00
5:53 PM,95.0,64.0,36,29.88,10.0,ESE,12.7,19.6,N/A,,Clear,110,2013-08-01 22:53:00
6:53 PM,93.0,66.0,41,29.87,10.0,ESE,13.8,-,N/A,,Clear,110,2013-08-01 23:53:00
7:53 PM,91.0,66.0,44,29.87,10.0,SE,11.5,-,N/A,,Clear,130,2013-08-02 00:53:00
8:53 PM,87.1,66.9,51,29.88,10.0,ESE,8.1,-,N/A,,Clear,110,2013-08-02 01:53:00
9:53 PM,82.9,66.9,58,29.88,10.0,East,6.9,-,N/A,,Clear,100,2013-08-02 02:53:00
10:53 PM,82.0,68.0,62,29.87,10.0,East,8.1,-,N/A,,Clear,100,2013-08-02 03:53:00
11:53 PM,80.1,69.1,69,29.88,10.0,East,5.8,-,N/A,,Clear,80,2013-08-02 04:53:00